星链-30276 (STARLINK-30276 )

导读

STARLINK-30276是美国SpaceX星链星座的v2 Mini卫星,于2023年8月17日发射入轨。星链是全球规模最大的低轨卫星互联网星座,旨在为全球提供高速宽带接入,覆盖偏远地区并支持各类商用、军用通信服务。该卫星是SpaceX批量部署星链网络的一部分,助力星链完成全球覆盖,支撑SpaceX火星探索计划的资金与技术布局,推动全球卫星互联网的普及应用。

Basic Information
目录编号:
57652
目录名称:
STARLINK-30276
国际标识:
2023-122W
轨道中心:
EARTH
卫星名称:
星链-30276
卫星全名:
星链-30276 (STARLINK-30276 )
卫星状态:
在轨 (已飞行1114 天)
发射日期:
2023-08-17 UTC
国别 :
美国 (US)
星等 :
--
Orbit Information
数据来源 国际轨道数据 AOE轨道数据
星历时间 2026-09-04T12:15:28+0800
6小时前
查看轨道信息
2026-09-03T23:00:00+0800
20小时前
查看轨道信息
半长轴 6861.199km 6861.159km
偏心率 0.0001428 0.0001378
轨道倾角 43.003° 43.001°
近地点辐角 267.902° 263.729°
升交点赤经 164.558° 167.678°
平近点角 92.167° 294.938°
近地点 482.082km 482.076km
远地点 484.042km 483.968km
周期 94.267分钟 94.266分钟
每日圈数 15.275758 15.275892
Detailed Information
固有亮度:
5
最大亮度:
0.3
卫星平台:
Starlink v2.0 mini
覆盖范围:
全球
运营商:
太空探索技术公司
运营商所在国:
美国
制造商(研发单位):
太空探索技术公司
制造商所在国:
美国
使用方式:
暂无
Satellite Introduction
星链(Starlink)计划是由太空探索技术公司(SpaceX)提出的一个巨型低轨卫星互联网星座项目,计划在2019年至2024年间在太空搭建由约1.2万颗卫星组成的“星链”网络,其中1584颗将部署在地球上空550千米处的近地轨道,并从2020年开始工作。该卫星仍在工作。
2D Orbit Map
3D Orbit Map
Orbit Altitude Analysis Chart
Orbit Inclination Analysis Chart
Orbit Comprehensive Analysis Chart
View Comprehensive Chart
Conjunction Data List
Event ID Objects TCA Miss Dist (km) Collision Risk Probability Collision Risk Index (CRI) Action
CDM_260830-192005-765206-401221
2026-08-30T
19:20:30+0000
0.568 km
远距离
9.989945E-5 中风险 0.75
CDM_260904-093005-187305-765222
2026-09-04T
09:30:33+0000
1.656 km
极远距离
3.507576E-6 低风险 0.46
CDM_260830-174605-765206-401221
2026-08-30T
17:46:21+0000
2.196 km
极远距离
1.530623E-6 低风险 0.39